Página principal
METAR-TAF:

METAR-TAF

Aeroportos :

Livingston County Spencer J. Hardy Airport

Howell, Michigan, Estados Unidos

latitude: 42-37-46N, longitude: 083-59-03W, altura: 293 m

Observação actual do tempo

O boletim foi feito há 25 minutos, às 23:15 UTC
Vento 6 kt de nor-noroeste com rajadas de 17 kt
Temperatura 8°C
Humidade 61%
Pressão 1024 hPa
Visibilidade: 16.1 km
Nuvens fragmentadasa uma altura de 4600 ft
Encobertoa uma altura de 5000 ft

METAR: KOZW 232315Z AUTO 34006G17KT 10SM BKN046 OVC050 08/01 A3023 RMK AO2 T00840011

Hora: 19:40 (23:40 UTC)


TAF: em falta

Observações e previsões do tempo de mais de 4000 aeroportos (mensagens METAR e TAF).

As estações disponíveis são os pontos amarelos e vermelhos sobre o mapa.

Mova o rato sobre o mapa para ver o nome da estação.

Depois clique no ponto para visualizar as observações e previsões meteorológicas.

Para alterar o mapa : clique nos botões verdes com uma cruz preta para aumentar o zoom; no botão verde com uma pitada de zoom; ou nas setas verdes para mapas adjacentes.


METAR-TAF: